CAPE
0 0 0 0 0 0 0 0 0 0 0 0 0 0 0 0 0 0 0 0 0 0 0 0 0 0 0 0 0 0 0 0 0 0 0 0 0 0 0 0 0 0 0 0
0 0 0 0 0 0 0 0 0 0 0 0 0 0 0 0 0 0 0 0 0 0 0 0 0 0 0 0 0 0 0 0 0 0 0 0 0 0 0 0 0 0 0 0
0 0 0 0 0 0 0 0 0 0 0 0 0 0 0 0 0 0 0 0 0 0 0 0 0 0 0 0 0 0 0 0 0 0 0 0 0 0 0 0 0 0 0 0
0 0 0 0 0 0 0 0 0 0 0 0 0 0 0 0 0 0 0 0 0 0 0 0 0 0 0 0 0 0 0 0 0 0 0 0 0 0 0 0 0 0 0 0
0 0 0 0 0 0 0 0 0 0 0 4 0 1 0 0 0 0 0 0 0 0 0 0 0 0 0 0 0 0 0 0 0 0 0 0 0 0 0 0 0 0 0 0
0 0 0 0 0 0 0 0 0 0 0 2 0 1 0 0 0 0 0 0 0 0 0 0 0 0 0 0 0 0 0 0 0 0 0 0 0 0 0 0 0 0 0 0
0 0 0 0 0 0 0 0 0 0 0 0 0 0 0 0 0 0 0 0 0 0 0 0 0 0 0 0 0 0 0 0 0 0 0 0 0 0 0 0 0 0 0 0
0 0 0 0 0 0 0 0 0 0 0 0 0 2 0 0 0 0 0 0 0 0 0 0 0 0 0 0 0 0 0 0 0 0 0 0 0 0 0 0 0 0 0 0
0 0 0 0 0 0 0 1 0 1 0 3 0 0 0 0 0 0 0 0 0 0 0 0 0 0 0 0 0 0 0 0 0 0 0 0 0 0 0 0 0 0 0 0
0 0 0 0 0 0 0 1 1 18 19 0 0 0 0 0 0 0 0 0 0 0 0 0 0 0 0 0 0 0 0 0 0 0 0 0 0 0 0 0 0 0 0 0
0 0 0 0 0 0 0 3 15 56 46 20 18 1 0 0 0 0 0 0 0 0 0 0 0 0 0 0 0 0 0 0 0 0 0 0 0 0 0 0 0 0 0 0
0 1 0 0 0 0 0 0 5 17 0 1 9 0 0 0 0 0 0 0 0 0 0 0 0 0 0 0 0 0 0 0 0 0 0 0 0 0 0 0 0 0 0 0
0 1 0 0 0 0 0 0 0 5 6 0 9 0 0 0 0 0 0 0 0 0 0 0 0 0 0 0 0 0 0 0 0 0 0 0 0 0 0 0 0 0 0 0
1 0 1 0 0 0 0 0 0 2 3 0 0 0 0 0 0 0 0 0 0 0 0 0 0 0 0 0 0 0 0 0 0 0 0 0 0 0 0 0 0 0 0 0
0 4 0 0 0 0 0 0 0 0 0 0 0 1 3 1 8 0 0 0 0 0 0 0 0 0 0 0 0 0 0 0 0 1 0 0 0 0 0 0 0 0 0 0
0 0 0 0 0 0 0 0 0 0 39 1 0 0 0 1 0 0 0 0 0 0 0 0 0 0 0 0 0 0 0 0 0 0 0 0 0 0 0 0 0 0 0 0
0 0 0 0 0 0 0 0 0 0 31 5 0 4 9 1 0 0 0 0 0 0 0 0 0 0 0 0 0 0 0 0 0 0 0 0 0 0 0 0 0 0 0 0
0 0 0 0 0 0 0 0 0 6 13 3 3 7 6 4 0 1 0 0 0 0 0 0 0 0 0 0 0 0 0 0 0 0 0 0 0 0 0 0 0 0 0 0
0 0 0 0 0 0 0 0 0 0 0 0 2 4 4 4 0 0 4 0 0 0 0 0 1 0 0 0 0 0 0 0 0 0 0 0 0 0 0 0 0 0 0 0
0 0 0 0 0 0 0 0 0 0 0 0 0 0 11 8 1 4 12 7 0 0 0 0 0 0 0 0 0 0 0 0 0 0 0 0 0 0 0 0 0 0 0 0
0 0 0 0 0 0 0 0 0 0 2 4 8 10 20 9 6 10 1 1 0 0 0 0 0 0 0 0 0 0 0 0 0 0 0 0 0 0 0 0 0 0 0 0
0 0 0 0 0 0 0 0 0 0 0 21 10 22 18 21 19 1 2 3 0 0 0 0 0 0 0 0 0 0 0 0 0 0 0 0 0 0 0 0 0 0 0 0
0 0 0 0 0 0 0 0 0 0 0 0 0 1 2 0 0 1 2 0 1 0 0 0 0 0 0 0 0 0 0 0 1 1 1 0 0 0 0 0 0 0 0 0
0 0 0 0 0 0 0 0 0 0 0 0 0 0 0 0 0 0 0 0 0 0 0 0 0 0 0 0 0 0 0 0 1 1 1 1 0 0 0 0 0 0 0 0
0 0 0 0 0 0 0 0 0 0 0 0 0 0 0 0 0 0 0 0 0 0 0 0 0 0 0 0 0 0 0 0 0 0 0 1 0 0 0 0 0 0 0 0
6 0 0 0 0 0 0 0 0 0 0 0 0 0 0 0 0 0 0 0 0 0 0 0 0 0 0 0 0 0 0 0 0 0 1 1 0 0 0 0 0 0 0 0
CIN
0 0 0 0 0 0 0 0 0 0 0 0 0 0 0 0 0 0 0 0 0 0 0 0 0 0 0 0 0 0 0 0 0 0 0 0 0 0 0 0 0 0 0 0
0 0 0 0 0 0 0 0 0 0 0 0 0 0 0 0 0 0 0 0 0 0 0 0 0 0 0 0 0 0 0 0 0 0 0 0 0 0 0 0 0 0 0 0
0 0 0 0 0 0 0 0 0 0 0 0 0 0 0 0 0 0 0 0 0 0 0 0 0 0 0 0 0 0 0 0 0 0 0 0 0 0 0 0 0 0 0 0
0 0 0 0 0 0 0 0 0 0 0 0 0 0 0 0 0 0 0 0 0 0 0 0 0 0 0 0 0 0 0 0 0 0 0 0 0 0 0 0 0 0 0 0
0 0 0 0 0 0 0 0 0 0 0 -1 0 -1 0 0 0 0 0 0 0 0 0 0 0 0 0 0 0 0 0 0 0 0 0 0 0 0 0 0 0 0 0 0
0 0 0 0 0 0 0 0 0 0 0 -1 0 0 0 0 0 0 0 0 0 0 0 0 0 0 0 0 0 0 0 0 0 0 0 0 0 0 0 0 0 0 0 0
0 0 0 0 0 0 0 0 0 0 0 0 0 0 0 0 0 0 0 0 0 0 0 0 0 0 0 0 0 0 0 0 0 0 0 0 0 0 0 0 0 0 0 0
0 0 0 0 0 0 0 0 0 0 0 0 0 0 0 0 0 0 0 0 0 0 0 0 0 0 0 0 0 0 0 0 0 0 0 0 0 0 0 0 0 0 0 0
0 0 0 0 0 0 0 -1 0 -1 0 -1 0 0 0 0 0 0 0 0 0 0 0 0 0 0 0 0 0 0 0 0 0 0 0 0 0 0 0 0 0 0 0 0
0 -2 0 0 0 0 -1 -1 -1 -4 -5 -9 -9 0 0 0 0 0 0 0 0 0 0 0 0 0 0 0 0 0 0 0 -1 0 0 0 0 0 0 0 0 0 0 0
0 -1 0 0 0 0 0 -1 0 -2 -1 -5 -1 -2 0 0 0 0 0 0 0 0 0 0 0 0 0 0 0 0 0 0 -2 0 0 0 0 0 0 0 0 0 0 0
0 -1 0 0 0 0 0 0 0 0 -1 0 0 0 0 0 0 0 0 0 0 0 0 0 0 0 0 0 0 0 0 0 -1 0 0 0 0 0 0 0 0 0 0 0
0 -5 -1 0 0 0 0 0 0 0 0 0 0 0 0 0 0 0 0 0 0 0 0 0 0 0 0 0 0 0 0 0 0 -1 0 0 0 0 0 0 0 0 0 0
-3 0 -1 0 0 0 0 0 0 0 0 0 0 0 0 0 0 0 0 0 0 0 0 0 0 0 0 0 0 0 0 0 0 0 0 0 0 0 0 0 0 0 0 0
-1 -2 0 0 0 0 0 0 0 0 0 0 0 0 0 0 0 0 0 0 0 0 0 0 0 0 0 0 0 0 0 0 0 -3 0 0 0 0 0 0 0 0 0 0
0 -1 0 0 0 0 0 0 0 0 0 0 0 0 0 0 0 0 0 0 0 0 0 0 0 0 0 0 0 0 0 0 -1 -3 0 0 0 0 0 0 0 0 0 0
0 -1 -1 0 0 0 0 0 0 0 -1 0 0 0 0 0 0 0 0 0 0 0 0 0 0 0 0 0 0 0 0 0 0 0 0 0 0 0 0 0 0 0 0 0
0 0 0 0 0 0 0 0 0 0 -22 0 0 0 0 0 0 0 0 0 0 0 0 0 0 0 0 0 0 0 0 0 0 0 0 0 0 0 0 0 0 0 0 0
0 0 0 -1 0 0 0 0 0 0 0 -1 0 0 0 0 0 0 0 0 0 0 0 0 0 -1 0 0 0 0 0 0 0 0 0 0 0 0 0 0 0 0 0 0
0 0 0 0 0 0 0 0 0 0 0 0 -32 -1 0 0 0 0 0 0 0 0 0 0 0 0 0 0 0 0 0 0 0 0 0 0 0 0 0 0 0 0 0 0
0 0 0 0 0 0 0 0 0 0 0 -9 -52 -49 -23 0 0 0 0 0 -1 0 0 0 0 0 0 0 0 0 0 0 0 0 0 0 0 0 0 0 0 0 0 0
0 0 0 0 0 0 0 0 0 0 0 -27 -44 -67 -52 -35 -10 -4 0 0 0 0 0 0 0 0 0 0 0 0 0 0 0 0 0 0 0 0 0 0 0 0 0 0
0 0 0 0 0 0 0 0 0 0 0 0 0 -10 -118 -8 -4 -2 0 0 0 0 0 0 0 0 0 0 0 0 0 0 0 0 0 0 0 0 0 0 0 0 0 0
0 0 0 0 0 0 0 0 0 0 0 0 0 0 0 0 0 0 0 0 0 0 0 0 0 0 0 0 0 0 0 0 0 0 0 0 0 0 0 0 0 0 0 0
0 0 0 0 0 0 0 0 0 0 0 0 0 0 0 0 0 0 0 0 0 0 0 0 0 0 0 0 0 0 0 0 0 0 0 0 0 0 0 0 0 0 0 0
-3 0 -3 0 0 0 0 0 0 0 0 0 0 0 0 0 0 0 0 0 0 0 0 0 0 0 0 0 0 0 0 0 0 0 0 0 0 0 0 0 0 0 0 0
Wind_Speed
6 9 8 8 7 9 11 13 17 14 12 12 17 19 18 18 21 17 16 15 12 13 17 15 18 18 18 18 17 18 18 16 12 9 9 6 7 4 3 4 7 7 6 7
7 8 6 14 13 13 11 14 12 12 9 19 12 35 22 26 25 20 18 21 22 11 10 10 16 18 19 21 21 19 19 17 15 12 9 4 6 3 3 3 5 6 7 7
4 2 12 13 13 17 14 14 14 17 20 16 19 32 19 24 24 22 22 20 22 18 14 9 13 19 19 21 21 20 22 20 18 16 8 4 5 4 3 3 4 5 7 7
3 5 12 13 9 12 14 3 17 21 16 6 11 19 18 8 15 22 26 18 18 12 9 9 12 17 19 21 19 21 21 21 19 19 14 14 12 10 5 7 5 6 7 7
4 9 15 8 7 11 7 10 13 15 18 17 19 12 16 10 20 28 13 15 11 11 11 12 12 17 18 20 20 20 21 21 19 19 19 14 12 7 5 4 8 7 5 7
8 8 3 7 13 10 12 13 19 14 7 13 15 16 11 18 22 17 9 18 13 14 14 15 16 16 19 19 21 21 22 22 21 20 20 20 17 12 10 10 9 8 6 6
8 2 5 4 14 8 13 4 5 7 4 9 3 12 25 16 14 12 15 12 12 13 17 18 18 14 18 21 22 20 23 23 22 21 21 21 18 16 15 14 11 12 8 6
6 8 9 12 13 9 16 3 4 7 11 13 11 15 10 11 19 25 27 26 22 13 10 14 15 14 19 22 23 24 25 24 23 22 22 20 18 12 11 13 11 10 10 9
6 6 24 15 11 3 6 5 8 11 19 11 10 21 23 27 27 18 21 15 13 11 13 15 15 16 19 21 25 26 24 24 24 23 19 19 18 17 15 15 12 10 10 9
6 15 9 9 7 3 7 7 8 5 8 7 8 14 13 19 27 18 19 23 26 19 10 12 12 14 16 19 22 24 25 27 25 23 20 18 18 17 14 13 14 13 11 12
5 3 15 4 6 18 10 5 6 9 7 8 10 7 13 19 20 15 9 10 9 6 8 9 9 9 16 17 21 23 23 24 23 21 20 18 16 17 14 14 14 13 12 13
4 4 5 26 21 8 3 6 11 7 12 16 16 16 17 19 12 9 18 9 7 9 8 8 9 8 9 15 18 22 21 22 22 21 19 19 17 17 16 15 15 15 14 13
3 2 7 18 7 2 6 9 13 14 15 21 13 14 3 14 20 18 13 15 9 8 9 8 8 7 6 12 16 20 20 21 21 21 20 18 17 17 17 16 15 15 15 14
2 4 7 9 18 17 22 29 24 16 11 16 18 30 30 16 18 15 10 10 14 5 8 9 8 8 4 5 11 17 17 18 20 21 19 19 18 18 17 15 15 16 15 15
5 6 4 15 20 22 25 27 25 21 21 14 23 30 25 23 24 1 9 11 12 11 10 8 8 7 5 1 3 7 12 16 20 20 18 19 16 16 15 15 15 15 15 14
3 11 3 17 16 12 22 24 16 16 15 10 16 22 28 29 14 8 10 11 14 14 12 11 8 8 6 1 3 6 10 14 16 17 16 17 16 16 15 15 15 15 14 14
7 4 1 8 15 9 10 7 19 11 15 13 15 22 27 13 13 13 11 13 14 16 13 13 8 6 6 4 3 3 7 11 15 15 14 15 16 16 16 15 15 15 15 15
15 6 4 7 6 4 11 17 14 14 7 13 16 21 26 20 9 14 18 17 17 15 15 15 9 6 4 4 4 5 4 9 12 13 14 15 15 15 15 15 15 15 14 16
14 4 4 3 5 11 11 7 11 19 15 10 13 20 26 26 10 21 21 18 15 16 13 12 12 7 4 4 3 4 5 6 10 12 14 15 16 16 15 16 16 13 14 13
5 9 5 3 4 9 7 15 16 18 4 10 6 12 17 23 14 11 19 20 20 19 16 15 14 9 9 5 3 4 4 5 7 9 12 13 14 15 16 15 15 13 13 13
2 3 12 10 10 9 10 11 9 4 6 9 5 12 5 9 8 10 14 15 16 16 18 17 13 10 10 9 2 4 5 5 5 7 9 10 11 14 15 14 11 12 11 11
9 5 5 3 2 9 11 4 2 5 11 8 6 7 10 6 7 8 12 12 16 19 19 17 13 11 12 11 6 4 6 3 6 7 8 8 10 8 10 14 10 12 12 11
7 9 6 9 7 7 6 8 12 13 7 7 4 6 7 8 6 7 10 11 10 14 13 12 12 12 12 12 10 7 7 5 3 6 7 7 8 7 10 13 12 10 11 10
15 16 12 15 19 22 20 18 9 7 10 8 7 6 5 6 7 9 7 9 9 9 9 10 13 15 14 12 11 7 6 5 4 5 6 6 9 8 8 8 9 10 10 9
15 4 9 15 22 17 15 13 16 17 8 8 6 4 6 5 6 5 6 6 6 8 10 9 11 11 12 10 11 11 9 6 6 5 4 5 5 9 7 6 7 9 9 12
14 19 9 10 19 10 17 7 6 8 7 9 7 5 4 3 5 4 4 4 4 7 8 8 8 10 12 12 12 12 11 8 5 5 3 3 4 5 6 7 5 10 8 10
Wind_Direction
354 64 30 344 5 345 325 310 306 300 289 314 294 298 287 283 271 265 261 261 242 225 233 212 203 196 194 191 186 190 188 171 160 164 167 165 177 167 179 179 168 164 153 154
11 68 359 345 343 326 310 308 308 298 321 315 312 292 280 274 271 269 255 254 248 239 231 214 204 194 189 189 192 188 192 175 173 172 179 163 157 157 158 171 171 168 158 160
68 276 349 343 336 325 320 310 301 293 315 291 289 283 266 254 250 254 252 248 247 233 229 215 205 198 190 193 190 190 189 184 175 169 148 109 89 82 117 186 177 183 165 167
353 332 328 327 343 330 322 331 309 302 315 325 353 287 272 283 259 240 244 240 241 234 221 214 198 202 197 197 191 190 188 183 179 168 167 172 183 178 187 176 167 170 169 169
295 322 313 323 328 310 294 327 308 301 286 295 257 250 280 188 243 247 254 248 226 226 224 222 203 199 202 193 192 190 186 185 179 176 172 176 183 179 155 138 158 168 170 169
302 262 260 285 307 271 313 323 295 269 238 252 251 225 270 244 249 259 241 248 230 228 230 235 228 200 202 199 193 187 184 186 183 180 174 181 182 168 159 167 172 175 175 173
340 196 290 297 335 308 300 330 325 338 224 253 348 211 241 279 286 276 258 255 256 231 228 230 229 200 202 197 193 189 184 187 187 181 180 182 182 174 175 176 176 171 174 183
347 337 340 321 299 281 280 219 245 260 271 274 306 253 249 305 258 256 265 262 257 248 240 243 238 214 205 196 191 188 186 185 186 182 184 182 179 179 182 181 178 180 181 179
310 273 303 306 294 212 302 225 233 262 265 273 241 258 269 277 270 257 244 249 247 244 246 241 244 219 207 198 192 189 185 186 185 183 182 183 180 180 183 181 178 177 174 173
271 296 278 330 300 256 215 281 316 255 278 273 260 254 261 293 285 291 270 257 261 266 262 253 231 220 208 199 191 187 185 185 184 183 182 182 182 181 176 170 175 173 170 168
263 239 300 316 324 307 336 334 271 282 261 288 299 303 314 259 264 288 319 325 308 282 273 273 270 237 204 190 189 188 185 183 185 182 178 177 177 177 170 174 173 172 166 169
260 225 294 296 289 255 164 293 315 311 313 291 282 274 274 270 331 308 334 327 288 286 287 290 286 251 198 188 186 189 184 182 184 177 175 175 173 170 171 176 176 170 171 171
277 277 319 328 357 166 271 302 300 299 279 263 283 276 158 342 297 301 328 312 301 305 324 310 331 295 230 195 183 184 184 180 178 177 171 172 171 173 177 177 172 170 168 170
359 242 187 260 269 295 299 301 302 295 284 286 263 274 290 305 307 296 334 310 300 345 329 313 327 325 278 248 190 179 181 177 174 176 171 171 172 175 177 172 171 169 169 167
143 246 214 256 268 280 277 284 290 292 274 268 296 296 312 321 297 37 296 324 321 4 344 322 326 332 331 157 160 161 171 170 174 174 172 172 169 173 170 166 166 167 168 170
246 272 265 286 277 266 288 286 280 291 315 294 314 328 324 317 279 22 17 349 350 345 352 329 321 334 339 329 147 145 159 163 174 172 172 166 164 167 164 163 163 163 166 166
187 223 239 267 297 310 303 225 338 322 317 332 339 334 322 315 43 23 20 11 355 338 337 333 321 322 346 25 69 136 154 155 170 168 163 162 162 164 165 162 162 165 166 164
255 219 241 263 359 313 240 327 308 306 322 348 336 333 335 313 61 37 27 24 1 334 343 337 331 333 360 18 59 98 122 158 162 163 158 157 162 163 162 162 167 167 166 169
214 183 249 217 207 284 294 290 334 317 310 342 343 338 341 340 315 33 9 15 2 347 348 344 339 344 352 25 62 88 96 133 149 155 156 159 162 162 161 166 168 168 166 168
212 197 168 78 221 251 282 303 296 295 236 355 318 350 347 340 5 11 358 360 354 352 353 354 339 6 10 354 66 111 121 125 136 145 150 157 161 163 166 167 168 168 169 167
331 330 219 241 254 276 266 274 301 29 300 319 301 299 6 350 346 326 358 358 348 356 350 357 351 11 356 341 38 111 136 132 128 122 138 151 158 163 164 162 165 159 158 155
228 172 212 65 120 286 246 281 213 275 300 287 286 291 305 290 302 349 357 3 355 350 350 354 353 7 3 2 16 59 56 352 133 129 129 135 150 155 157 156 155 157 152 151
256 207 216 202 226 248 241 239 284 310 280 282 276 283 284 301 320 326 346 4 358 342 337 348 346 5 9 9 13 35 351 3 115 126 135 138 132 139 154 155 154 151 155 156
260 239 245 267 260 254 263 274 259 253 267 262 257 279 301 320 339 346 356 342 346 332 329 335 6 9 4 3 6 3 339 15 66 122 134 138 144 139 145 153 160 158 160 159
250 234 229 248 256 269 264 259 266 273 278 240 250 263 288 319 325 347 347 330 334 328 340 341 1 360 355 357 12 356 1 15 60 69 92 118 137 148 140 137 160 166 178 173
253 244 224 238 256 237 265 259 240 236 222 226 227 247 265 294 317 325 328 332 324 346 341 355 360 355 341 2 10 7 360 3 46 59 62 63 115 122 131 133 100 53 103 106